| time (UTC) | temp C | wind direction | speed KPH | gust KPH | rain 1hr cm | rain 24hr cm | rain mn cm | humidity % | barometer mb |
| 20260503203101 | 12 | 281 | 9.7 | 25.7 | 0.00 | 0.00 | 0.00 | 39 | 1012.3 |
| 20260503201600 | 13 | 294 | 6.4 | 22.5 | 0.00 | 0.00 | 0.00 | 37 | 1012.3 |
| 20260503200054 | 13 | 345 | 9.7 | 25.7 | 0.00 | 0.00 | 0.00 | 36 | 1012.2 |
| 20260503194655 | 13 | 271 | 11.3 | 20.9 | 0.00 | 0.00 | 0.00 | 34 | 1012.4 |
| 20260503193051 | 13 | 285 | 9.7 | 19.3 | 0.00 | 0.00 | 0.00 | 34 | 1012.5 |
| 20260503191551 | 13 | 290 | 6.4 | 17.7 | 0.00 | 0.00 | 0.00 | 33 | 1012.5 |
| 20260503190053 | 13 | 178 | 4.8 | 24.1 | 0.00 | 0.00 | 0.00 | 33 | 1012.6 |
| 20260503184603 | 13 | 311 | 4.8 | 25.7 | 0.00 | 0.00 | 0.00 | 34 | 1012.8 |
| 20260503183049 | 12 | 263 | 4.8 | 19.3 | 0.00 | 0.00 | 0.00 | 33 | 1013.0 |
| 20260503181546 | 13 | 289 | 6.4 | 17.7 | 0.00 | 0.00 | 0.00 | 33 | 1013.3 |
| 20260503180040 | 12 | 285 | 12.9 | 20.9 | 0.00 | 0.00 | 0.00 | 33 | 1013.5 |
| 20260503174534 | 11 | 349 | 8.0 | 20.9 | 0.00 | 0.00 | 0.00 | 38 | 1013.7 |
| 20260503173035 | 11 | 51 | 3.2 | 24.1 | 0.00 | 0.00 | 0.00 | 37 | 1014.0 |
| 20260503171540 | 11 | 176 | 6.4 | 25.7 | 0.00 | 0.00 | 0.00 | 36 | 1014.1 |
| 20260503081534 | 1 | 351 | 0.0 | 0.0 | 0.00 | 0.00 | 0.00 | 79 | 1014.6 |
| 20260503071538 | 1 | 351 | 0.0 | 0.0 | 0.00 | 0.00 | 0.00 | 77 | 1014.4 |
| 20260503054522 | 2 | 351 | 0.0 | 1.6 | 0.00 | 0.00 | 0.00 | 74 | 1014.7 |
| 20260503053014 | 2 | 351 | 0.0 | 1.6 | 0.00 | 0.00 | 0.00 | 74 | 1014.9 |
| 20260503051511 | 2 | 351 | 0.0 | 1.6 | 0.00 | 0.00 | 0.00 | 73 | 1015.0 |
| 20260503050010 | 2 | 351 | 0.0 | 0.0 | 0.00 | 0.00 | 0.00 | 73 | 1015.3 |
| 20260503044509 | 2 | 351 | 0.0 | 0.0 | 0.00 | 0.08 | 0.00 | 72 | 1015.4 |
| 20260503043005 | 3 | 351 | 0.0 | 0.0 | 0.00 | 0.08 | 0.00 | 70 | 1015.5 |
| 20260503041502 | 3 | 351 | 0.0 | 0.0 | 0.00 | 0.08 | 0.00 | 70 | 1015.6 |
| 20260503040059 | 3 | 351 | 0.0 | 0.0 | 0.00 | 0.08 | 0.00 | 69 | 1015.6 |
| 20260503034557 | 4 | 351 | 0.0 | 0.0 | 0.00 | 0.08 | 0.08 | 68 | 1015.6 |
| 20260503033057 | 5 | 351 | 0.0 | 0.0 | 0.00 | 0.08 | 0.08 | 67 | 1015.5 |
| 20260503031556 | 5 | 351 | 0.0 | 0.0 | 0.00 | 0.08 | 0.08 | 66 | 1015.4 |
| 20260503030100 | 5 | 351 | 0.0 | 1.6 | 0.00 | 0.08 | 0.08 | 65 | 1015.5 |
| 20260503024555 | 6 | 351 | 0.0 | 3.2 | 0.00 | 0.10 | 0.08 | 62 | 1015.5 |
| 20260503023105 | 6 | 351 | 1.6 | 4.8 | 0.00 | 0.10 | 0.08 | 61 | 1015.5 |
| 20260503021558 | 6 | 5 | 1.6 | 4.8 | 0.00 | 0.10 | 0.08 | 61 | 1015.5 |
| 20260503020058 | 6 | 5 | 1.6 | 6.4 | 0.00 | 0.10 | 0.08 | 60 | 1015.6 |
| 20260503014553 | 6 | 5 | 1.6 | 4.8 | 0.00 | 0.18 | 0.08 | 59 | 1015.5 |
| 20260503013056 | 6 | 5 | 1.6 | 4.8 | 0.00 | 0.18 | 0.08 | 57 | 1015.4 |
| 20260503011614 | 7 | 5 | 0.0 | 6.4 | 0.00 | 0.18 | 0.08 | 56 | 1015.3 |
| 20260503010056 | 7 | 5 | 0.0 | 4.8 | 0.00 | 0.18 | 0.08 | 55 | 1015.2 |
| 20260503004552 | 7 | 5 | 1.6 | 12.9 | 0.00 | 0.23 | 0.08 | 54 | 1015.0 |
| 20260503003052 | 7 | 360 | 1.6 | 8.0 | 0.00 | 0.23 | 0.08 | 53 | 1014.9 |
| 20260503001551 | 7 | 360 | 3.2 | 9.7 | 0.00 | 0.23 | 0.08 | 53 | 1014.8 |
| 20260502234600 | 7 | 281 | 3.2 | 8.0 | 0.00 | 0.36 | 0.08 | 51 | 1014.7 |
| 20260502233048 | 8 | 277 | 3.2 | 11.3 | 0.00 | 0.36 | 0.08 | 52 | 1014.5 |
| 20260502231548 | 8 | 276 | 1.6 | 4.8 | 0.00 | 0.36 | 0.08 | 53 | 1014.4 |
| 20260502230048 | 8 | 275 | 1.6 | 6.4 | 0.00 | 0.36 | 0.08 | 53 | 1014.5 |
| 20260502224549 | 8 | 275 | 3.2 | 14.5 | 0.00 | 0.38 | 0.08 | 54 | 1014.4 |
| 20260502223047 | 8 | 272 | 0.0 | 9.7 | 0.00 | 0.38 | 0.08 | 53 | 1014.3 |
| 20260502221549 | 8 | 269 | 1.6 | 12.9 | 0.00 | 0.38 | 0.08 | 53 | 1014.2 |
| 20260502220057 | 8 | 210 | 1.6 | 16.1 | 0.00 | 0.38 | 0.08 | 51 | 1014.3 |
| 20260502214545 | 8 | 213 | 3.2 | 9.7 | 0.00 | 0.38 | 0.08 | 50 | 1014.2 |
| 20260502213045 | 8 | 285 | 4.8 | 16.1 | 0.00 | 0.38 | 0.08 | 49 | 1014.1 |
| 20260502211544 | 8 | 275 | 3.2 | 11.3 | 0.00 | 0.38 | 0.08 | 49 | 1014.0 |
| 20260502210048 | 9 | 277 | 4.8 | 14.5 | 0.00 | 0.38 | 0.08 | 46 | 1013.9 |
| 20260502204544 | 9 | 282 | 4.8 | 14.5 | 0.00 | 0.38 | 0.08 | 46 | 1013.9 |